Location: Unspecified
(0.0000°N, 0.0000°E)
Time: 03:02:09
(UTC+00:00)

X-37B - Pass Details

Date: 03 March 2021
Orbit: 383 x 391 km, 45.0° (Epoch: 10 February)

Event Time Altitude Azimuth Distance (km) Brightness Sun altitude
Rises 18:50:11 0° 195° (SSW) 2,274 4.8 -9.5°
Reaches altitude 10° 18:52:55 10° 170° (S) 1,417 3.4 -10.2°
Maximum altitude 18:54:49 15° 133° (SE) 1,162 2.6 -10.7°
Enters shadow 18:55:44 14° 114° (ESE) 1,223 2.6 -10.9°
